Home   Weather   Wuhan   Past weeks

Flag for China Past Weather in Wuhan, Hubei, China — Yesterday and Last 2 Weeks

Now
82 °F

Clear.


Feels Like: 91 °F
Forecast: 83 / 97 °F
Wind: 1 mph from Northeast

Location: Wuhan Airport

Current Time: Jul 23, 2018 at 4:38:25 am

Latest Report: Jul 23, 2018 at 3:00 am


Visibility: 10 mi

Pressure: 29.53 "Hg

Humidity: 84%

Dew Point: 77 °F

Location of WuhanLocation

Past Weather in Wuhan — Graph

°F

Wuhan Temperature Yesterday

Maximum temperature yesterday: 97 °F (at 1:00 pm)
Minimum temperature yesterday: 81 °F (at 4:00 am)
Average temperature yesterday: 89 °F

High & Low Weather Summary for the Past Weeks

 TemperatureHumidityPressure
High100 °F (Jul 19, 2:00 pm)100% (Jul 8, 5:00 pm)29.74 "Hg (Jul 8, 5:00 pm)
Low77 °F (Jul 8, 2:00 am)42% (Jul 21, 2:00 pm)29.50 "Hg (Jul 11, 5:00 pm)
Average88 °F71%29.62 "Hg
* Reported Jul 8 2:00 am — Jul 23 2:00 am, Wuhan. Weather by CustomWeather, © 2018

Note: Actual official high and low records may vary slightly from our data, if they occured in-between our weather recording intervals... More about our weather records

Advertising

Wuhan Weather History for the Previous 24 Hours

Scroll right to see more
 ConditionsComfort  
Time TempWeatherWind HumidityBarometerVisibility
2:00 am
Mon, Jul 23
82 °FClear.1 mph84%29.53 "Hg10 mi
1:00 am84 °FClear.1 mph74%29.56 "Hg10 mi
12:00 am84 °FClear.6 mph74%29.56 "Hg10 mi
11:00 pm
Sun, Jul 22
86 °FClear.6 mph70%29.56 "Hg10 mi
10:00 pm86 °FClear.6 mph70%29.56 "Hg10 mi
9:00 pm88 °FClear.6 mph62%29.56 "Hg10 mi
8:00 pm90 °FPassing clouds.6 mph63%29.53 "HgN/A
7:00 pm91 °FPassing clouds.10 mph59%29.53 "HgN/A
6:00 pm95 °FPassing clouds.10 mph53%29.50 "HgN/A
5:00 pm97 °FScattered clouds.8 mph53%29.50 "HgN/A
4:00 pm97 °FScattered clouds.3 mph56%29.50 "HgN/A
3:00 pm95 °FScattered clouds.6 mph56%29.53 "HgN/A
2:00 pm97 °FScattered clouds.6 mph53%29.56 "HgN/A
1:00 pm97 °FScattered clouds.6 mph50%29.56 "HgN/A
12:00 pm95 °FPassing clouds.6 mph56%29.59 "HgN/A
11:00 am93 °FSunny.6 mph56%29.59 "Hg10 mi
10:00 am91 °FScattered clouds.6 mph59%29.59 "HgN/A
9:00 am90 °FPassing clouds.3 mph63%29.59 "HgN/A
8:00 am86 °FClear.3 mph75%29.59 "Hg5 mi
7:00 am84 °FClear.8 mph74%29.59 "Hg4 mi
6:00 am81 °FClear.6 mph89%29.59 "Hg4 mi
5:00 am81 °FClear.6 mph84%29.56 "Hg5 mi
4:00 am81 °FClear.6 mph89%29.56 "Hg10 mi
Weather by CustomWeather, © 2018

See weather overview